Location: Dippach
(50.2025°N, 10.6019°E)
Time: 11:22:32
(UTC+00:00)

Daily predictions for brighter satellites

Satellite Brightness Start Highest point End
(mag) Time Altitude Azimuth Time Altitude Azimuth Time Altitude Azimuth
Cosmos 2154 Rocket 4.3 18:28:18 10° SSE 18:34:20 50° E 18:40:25 10° NNE
ATLAS 3B R/B 3.1 18:26:58 10° SW 18:34:38 84° SE 18:42:35 10° NE
USA 229 DEB 3.7 18:30:39 10° SW 18:36:43 83° NW 18:43:37 10° NE
USA 229 3.7 18:30:42 10° SW 18:36:46 84° NW 18:43:40 10° NE
Helios 1A Rocket 3.3 18:35:53 10° NE 18:38:40 26° E 18:41:25 10° SSE
Aureole 1 Rocket 2.2 18:36:39 10° SSW 18:39:54 59° ESE 18:42:53 10° NNE
Cosmos 2278 3.8 18:34:19 10° SSW 18:39:59 88° WNW 18:45:42 10° NNE
Cosmos 1844 Rocket 3.9 18:34:45 10° NW 18:40:00 43° WSW 18:45:12 10° S
Cosmos 2228 Rocket 3.1 18:37:49 10° N 18:42:20 77° ENE 18:46:47 10° SSE
Cosmos 2360 Rocket 2.2 18:39:03 10° SSW 18:44:37 69° ESE 18:50:15 10° NNE
COSMO-SKYMED 1 4.2 18:42:28 10° N 18:46:16 37° WNW 18:50:04 10° SW
Okean-O 4.2 18:43:45 10° ESE 18:46:50 19° ENE 18:49:55 10° NNE
BlueWalker 3 4.3 18:46:00 10° W 18:48:15 16° SW 18:50:29 10° S
Cosmos 2184 Rocket 4.0 18:46:05 10° S 18:52:24 72° E 18:58:45 10° NNE
Cosmos 2322 Rocket 2.2 18:46:56 10° SSW 18:52:33 84° ESE 18:58:11 10° NNE
Cosmos 1666 Rocket 3.7 18:50:30 10° SSW 18:54:46 80° W 18:59:06 10° N
Cosmos 1633 Rocket 3.0 18:51:27 10° S 18:55:50 88° E 19:00:14 10° N
Cosmos 1340 Rocket 2.9 18:52:52 10° SSW 18:56:31 72° WNW 19:00:11 10° N
ADEOS 4.0 18:52:52 10° SE 18:57:50 46° ENE 19:02:47 10° N
Feng Yun 1-1 Rocket 4.3 18:53:40 10° SSE 18:59:12 65° ENE 19:04:38 10° N
BREEZE-M DEB (TANK) 2.8 18:57:46 10° SW 18:59:48 30° SSE 19:02:36 10° E
SL-16 R/B 3.1 18:55:01 10° SW 19:00:34 55° NW 19:06:10 10° NNE
Terra 2.2 18:56:16 10° SE 19:00:43 46° ENE 19:05:13 10° N
ATLAS 5 CENTAUR R/B 3.6 18:59:52 10° WNW 19:02:05 18° NNW 19:04:30 10° NNE
MOS 1 4.4 18:57:27 10° SSE 19:02:58 62° ENE 19:08:34 10° N
CSL-04 Debris 4.2 18:57:59 10° SSE 19:03:21 88° WSW 19:08:46 10° NNW
CZ-4 R/B 1.2 19:01:48 10° SSE 19:05:36 86° ENE 19:09:23 10° NNW
Cosmos 1898 Rocket 3.4 19:00:28 10° SSW 19:05:41 71° ESE 19:10:54 10° NNE
Resurs 01 Rocket 4.1 19:04:18 10° SSW 19:07:50 24° W 19:11:24 10° NW
SL-08 R/B 4.1 19:04:50 10° NNE 19:09:11 32° E 19:13:33 10° SSE
Okean O Rocket 2.6 19:06:43 13° ESE 19:09:52 30° ENE 19:13:41 10° N
Meteor 1-24 Rocket 4.3 19:08:22 10° NNW 19:13:41 58° W 19:19:10 10° S
Cosmos 2333 4.2 19:09:39 10° SSW 19:15:15 88° WNW 19:20:54 10° NNE
Cosmos 372 Rocket 4.3 19:11:21 10° SSW 19:16:34 75° WNW 19:21:49 10° NNE
Cosmos 1680 Rocket 3.5 19:12:43 10° NNW 19:17:55 66° ENE 19:22:22 14° SE
CZ-4B R/B 4.5 19:16:53 14° E 19:18:10 16° ENE 19:20:23 10° NNE
SPOT 5 3.6 19:16:25 10° S 19:21:03 51° W 19:25:31 10° NNW
Cosmos 2219 Rocket 2.1 19:15:31 10° SSW 19:21:05 80° ESE 19:26:42 10° NNE
Cosmos 2074 Rocket 4.4 19:18:00 10° SSW 19:24:11 70° WNW 19:30:27 10° N
Meteor 1-31 Rocket 3.6 19:22:38 10° S 19:26:01 45° W 19:29:26 10° NNW
Cosmos 1937 Rocket 3.5 19:21:56 10° SSW 19:27:14 80° ESE 19:32:33 10° NNE
SL-24 R/B - RUBIN 2 3.5 19:27:49 10° NW 19:32:14 87° NE 19:35:18 21° SE
Cosmos 923 Rocket 4.2 19:28:35 10° NNW 19:33:54 73° WSW 19:38:50 12° SSE
USA 234 3.4 19:27:23 10° ENE 19:33:58 83° NNW 19:40:32 10° WSW
USA 186 2.1 19:34:28 25° NE 19:34:28 25° NE 19:36:00 10° N
Cosmos 2369 Rocket 4.4 19:31:51 10° N 19:34:38 14° NNE 19:37:25 10° ENE
Cosmos 2112 Rocket 3.9 19:30:16 10° NNW 19:35:31 76° ENE 19:39:16 19° SSE
SL-8 Rocket 4.2 19:30:24 10° SSE 19:36:23 52° E 19:42:27 10° NNE
NOSS 2-3 (E) 4.2 19:32:44 10° NW 19:37:41 87° SW 19:42:20 20° SE
COSMOS 2428 3.1 19:33:09 10° S 19:38:27 40° ESE 19:43:46 10° NE
USA 238 DEB 4.3 19:32:06 10° NW 19:39:08 53° NE 19:44:50 19° ESE
USA 238 4.4 19:32:17 10° NW 19:39:18 53° NE 19:45:00 19° ESE
PAYLOAD B 4.5 19:34:51 10° S 19:40:19 69° WSW 19:45:50 10° NNW
Cosmos 1953 4.4 19:37:36 10° SW 19:40:39 26° WNW 19:43:45 10° NNW
CZ-4B R/B 3.3 19:35:17 10° SSE 19:40:48 82° WSW 19:46:29 10° NNW
NOSS 2-3 (C) 4.2 19:36:17 10° NW 19:41:08 81° NE 19:45:27 22° SE
MetOp-B 4.2 19:35:51 10° SSE 19:41:13 80° WSW 19:46:37 10° NNW
Cosmos 1241 Rocket 4.5 19:35:20 10° NW 19:41:37 78° NE 19:45:53 22° SE
USA 245 4.4 19:40:43 24° ESE 19:42:15 32° ENE 19:46:22 10° N
Cosmos 2278 Rocket 2.6 19:39:04 10° NNW 19:44:36 50° NE 19:47:49 24° ESE
SKYMED 3 4.1 19:41:37 10° NNE 19:45:31 76° ESE 19:49:23 10° S
Cosmos 2366 rocket 4.1 19:40:23 10° SSE 19:46:22 55° E 19:52:20 10° NNE
Ariane Rocket 3.9 19:46:48 23° ESE 19:48:54 31° ENE 19:53:18 10° N
NOSS 3-2 (C) 4.3 19:42:27 10° NW 19:49:39 70° SW 19:56:23 18° SSE
Cosmos 2327 Rocket 4.4 19:43:34 10° S 19:49:43 82° E 19:56:01 10° N
Cosmos 2333 Rocket 4.1 19:45:05 10° WSW 19:50:09 33° NW 19:55:16 10° NNE
Geosat 4.2 19:49:02 10° NNE 19:54:03 75° WNW 19:59:01 10° SW
USA 32 4.2 19:53:57 23° SSE 19:56:56 51° E 20:01:59 10° NNE
Spot 2 Rocket 3.4 19:53:55 22° SSE 19:57:11 81° ENE 20:02:14 10° NNW
BREEZE-M DEB (TANK) 2.1 19:54:40 10° W 19:57:15 79° S 19:59:33 27° E
NOSS 2-3 (D) 4.4 19:55:01 10° NW 19:59:59 68° SW 20:03:53 24° SSE
Lacrosse 5 rocket 0.5 19:56:53 10° SW 20:00:02 66° SE 20:00:41 50° E
CZ-2C R/B 3.6 20:00:39 23° NE 20:00:39 23° NE 20:02:39 10° N
Cosmos 1809 Rocket 4.4 19:54:54 10° N 20:01:05 76° E 20:05:08 23° SSE
ARIANE 6 FM1 Upper Stage 3.6 19:57:27 10° WSW 20:01:26 49° NW 20:05:22 10° NE
Cosmos 1378 Rocket 4.2 19:58:09 10° N 20:02:20 39° ENE 20:03:21 34° ESE
ERS-1 Rocket 3.8 19:58:09 10° S 20:02:58 47° W 20:07:49 10° NNW
Cosmos 1933 Rocket 4.0 20:01:07 10° SSW 20:05:26 61° WNW 20:09:49 10° N
Cosmos 1943 Rocket 2.1 20:04:32 10° NNW 20:10:15 85° ENE 20:12:59 32° SSE
YAOGAN 11 3.9 20:07:02 10° NNE 20:11:17 80° ESE 20:13:55 23° S
Cosmos 2218 Rocket 3.9 20:06:05 12° S 20:11:43 76° E 20:17:53 10° NNE
Meteor 1-11 4.2 20:08:42 10° N 20:14:16 65° ENE 20:16:34 35° SE
Meteor 2-15 4.3 20:11:09 17° S 20:15:50 72° E 20:21:55 10° NNE
USA 59 Rocket 0.8 20:13:52 10° NNW 20:16:42 29° NE 20:17:17 27° ENE
MOS 1-B 4.5 20:14:21 22° S 20:18:11 73° WSW 20:23:59 10° NNW
Cosmos 1733 Rocket 3.1 20:18:20 48° SE 20:19:09 56° E 20:23:27 10° NNE
Cosmos 192 4.3 20:18:37 34° S 20:20:32 57° ESE 20:25:23 10° NNE
SeaSat 1 3.5 20:19:54 26° E 20:21:34 33° NE 20:25:55 10° NNW
Cosmos 1959 Rocket 4.5 20:15:53 13° S 20:21:35 84° E 20:27:57 10° N
CZ-4B R/B 3.4 20:20:21 42° SE 20:21:55 67° ENE 20:26:42 10° N
NOSS 3-4 (A) 3.8 20:23:13 34° E 20:23:13 34° E 20:27:38 10° NE
Okean-O 3.0 20:20:35 29° S 20:22:42 61° WSW 20:27:03 10° NNW
IRS-1C Rocket 4.2 20:20:58 39° SE 20:22:45 60° ENE 20:27:58 10° N
NOSS 3-4 (C) 3.8 20:23:46 34° E 20:23:46 34° E 20:28:09 10° NE
Cosmos 1821 Rocket 3.9 20:22:24 25° S 20:26:12 72° E 20:32:31 10° NNE
ATLAS 3B R/B 4.3 20:18:55 10° W 20:26:15 41° NNW 20:33:39 10° NE
Cosmos 1048 Rocket 3.9 20:22:57 10° NNW 20:28:06 84° WSW 20:29:52 42° SSE
Cosmos 2360 Rocket 4.3 20:24:18 10° WSW 20:29:07 28° NW 20:33:57 10° NNE
Timation 2 Rocket 3.9 20:27:25 10° NNW 20:33:42 88° WSW 20:36:19 39° SSE
NOSS 2-1 (E) 4.3 20:32:25 10° NNW 20:35:15 28° NE 20:35:21 28° NE
NOSS 2-1 (C) 4.2 20:34:05 10° NNW 20:36:58 32° NE 20:36:58 32° NE
Terra 3.7 20:34:34 10° SSW 20:38:27 25° W 20:42:21 10° NW
Aureole 3 3.6 20:34:55 10° NNW 20:38:59 83° W 20:40:03 53° S
Meteor 2-21 4.5 20:33:46 10° NNW 20:39:54 79° W 20:42:49 33° S
NOSS 2-1 (D) 3.9 20:39:43 10° NNW 20:42:32 39° NNE 20:42:32 39° NNE
Cosmos 468 4.4 20:39:01 10° NNW 20:44:17 80° ENE 20:45:23 56° SE
Cosmos 2242 Rocket 3.9 20:40:47 10° NNW 20:45:15 63° W 20:46:21 46° SSW
ATLAS 5 CENTAUR R/B 4.2 20:44:50 10° NNW 20:45:34 10° N 20:46:20 10° NNE
Okean O Rocket 2.9 20:43:57 23° SW 20:46:00 34° W 20:50:00 10° NNW
Cosmos 1000 Rocket 4.4 20:41:02 10° N 20:47:15 73° ENE 20:49:04 47° SSE
Cosmos 2237 Rocket 2.2 20:47:31 51° SSE 20:48:34 59° ESE 20:54:10 10° NE
Cosmos 1980 3.6 20:47:57 47° S 20:49:23 64° ESE 20:54:59 10° NE
Cosmos 1025 Rocket 3.0 20:45:18 10° N 20:49:24 66° ENE 20:49:24 66° ENE
Cosmos 1125 Rocket 3.7 20:51:20 51° E 20:51:20 51° E 20:56:11 10° NNE
CZ-4B R/B 3.2 20:51:35 50° WSW 20:51:37 50° W 20:55:05 10° NNW
ASTEX 1 3.7 20:50:47 41° SSW 20:52:22 63° W 20:57:16 10° NNW
Cosmos 2322 4.3 20:47:04 10° SW 20:52:42 59° NW 20:58:23 10° NNE
Cosmos 2292 Rocket 3.8 20:47:28 10° N 20:53:23 78° E 20:54:03 65° SE
Cosmos 1400 Rocket 3.4 21:03:02 46° N 21:03:02 46° N 21:05:42 10° N
SPOT 3 Rocket 4.0 21:02:10 41° SSW 21:03:40 55° W 21:08:47 10° NNW
Cosmos 2219 Rocket 4.4 21:01:08 10° W 21:05:40 25° NW 21:10:14 10° NNE
SL-08 R/B 4.3 21:11:05 58° SSE 21:12:15 75° E 21:18:23 10° NNE
USA 234 4.0 21:10:23 10° ENE 21:16:40 52° N 21:22:58 10° W
Cosmos 1674 Rocket 4.1 21:15:51 10° NNW 21:19:57 52° W 21:19:57 52° W
Cosmos 2369 Rocket 2.8 21:14:53 10° NNW 21:20:13 43° NE 21:20:57 41° ENE
Cosmos 1908 Rocket 4.1 21:22:14 50° NNE 21:22:14 50° NNE 21:25:31 10° NNE
Helios 1B rocket 3.9 21:23:49 27° NNE 21:23:49 27° NNE 21:25:39 10° N
COSMOS 2428 3.8 21:17:15 10° WSW 21:22:40 43° NW 21:28:09 10° NNE
NOSS 0 Rocket 4.4 21:19:22 10° SW 21:25:33 62° NW 21:31:45 10° NNE
Ariane Rocket 3.7 21:26:52 40° WSW 21:27:39 43° W 21:32:27 10° NNW
Cosmos 2278 Rocket 3.3 21:23:28 10° NW 21:28:29 33° WSW 21:29:39 30° SW
USA 238 DEB 4.2 21:23:06 10° NW 21:30:19 57° WSW 21:32:16 46° SSW
USA 238 4.2 21:23:16 10° NW 21:30:30 57° WSW 21:32:26 46° S
Cosmos 2221 Rocket 4.0 21:26:22 10° NNW 21:30:11 60° NW 21:30:11 60° NW
Cosmos 1346 Rocket 4.2 21:29:15 10° NNW 21:31:34 33° NW 21:31:34 33° NW
Helios 1A 4.4 21:30:49 10° NNE 21:32:53 29° NNE 21:32:53 29° NNE
Lacrosse 5 rocket 3.8 21:33:59 10° W 21:34:04 11° W 21:34:04 11° W
DNEPR-1 R/B 4.3 21:45:57 48° NNW 21:45:57 48° NNW 21:49:48 10° NE
Cosmos 1656 Rocket 3.7 21:45:09 10° NNW 21:50:17 65° W 21:50:17 65° W
Cosmos 1943 Rocket 4.1 21:49:31 10° WNW 21:53:14 18° W 21:54:29 17° WSW
SL-16 R/B 2.8 21:58:05 44° ENE 21:58:05 44° ENE 22:02:09 10° NE
SJ 16-02 3.8 21:54:30 10° NNE 21:56:43 14° NE 21:56:47 14° NE
SeaSat 1 3.1 21:59:30 47° W 21:59:30 47° W 22:03:34 10° NW
CZ-2C R/B 4.3 22:02:52 22° ENE 22:03:31 23° ENE 22:07:44 10° N
Cosmos 1934 Rocket 4.3 22:03:45 53° WSW 22:04:54 61° WNW 22:11:07 10° N
USA 59 Rocket 2.2 22:02:06 10° WNW 22:02:48 15° WNW 22:02:48 15° WNW
BREEZE-M R/B 4.5 21:54:15 10° SW 22:05:55 64° SSE 22:11:39 10° ENE
Cosmos 1447 Rocket 4.4 22:00:08 10° N 22:06:29 78° E 22:06:34 78° E
Cosmos 1140 Rocket 4.0 22:04:20 10° NNW 22:08:44 53° NNE 22:08:44 53° NNE
Cosmos 2346 Rocket 4.3 22:03:51 10° N 22:10:00 89° W 22:10:00 89° W
NOSS 3-4 (A) 3.8 22:10:28 29° W 22:13:02 53° NW 22:18:58 10° NE
NOSS 3-4 (C) 3.8 22:11:02 30° W 22:13:32 54° NW 22:19:30 10° NE
Cosmos 2285 Rocket 3.9 22:19:16 85° WSW 22:19:24 86° WNW 22:25:48 10° NNE
Cosmos 967 Rocket 4.4 22:20:19 10° NW 22:26:46 86° NNE 22:26:46 86° NNE
NOSS 3-1 (C) 3.9 22:20:40 10° NW 22:27:31 84° NE 22:28:43 67° ESE
ALOS 2 3.9 22:29:40 38° N 22:29:40 38° N 22:32:29 10° N
RESURS DK-1 4.4 22:30:06 25° N 22:30:06 25° N 22:32:13 10° NNE
ATLAS 5 CENTAUR R/B 3.8 22:26:22 10° NNW 22:29:03 18° NNE 22:29:34 18° NE
Cosmos 1605 Rocket 4.1 22:32:45 64° W 22:32:54 64° WNW 22:39:00 10° N
Cosmos 2237 Rocket 3.8 22:29:12 16° W 22:32:58 32° NW 22:38:04 10° NNE
Cosmos 2297 4.1 22:32:42 10° NNW 22:37:29 57° WNW 22:37:29 57° WNW
ARIANE 5 R/B 4.1 22:40:11 35° NNW 22:40:11 35° NNW 22:42:45 10° NNW
COSMOS 2455 3.4 22:38:55 10° NNW 22:44:48 51° NE 22:45:16 50° ENE
Cosmos 2173 Rocket 4.1 22:55:45 67° NE 22:55:45 67° NE 23:01:10 10° NNE
CZ-2C R/B 4.3 22:52:42 10° NNE 22:55:50 33° NE 22:55:50 33° NE
USA 234 3.8 22:52:49 10° E 22:59:09 55° NNE 23:05:30 10° WNW
Cosmos 2100 Rocket 4.0 23:00:25 73° NE 23:00:25 73° NE 23:06:01 10° NNE
Cosmos 2251 Rocket 4.4 22:58:48 10° NNW 23:03:27 43° NE 23:03:27 43° NE
Cosmos 371 Rocket 4.4 22:59:12 10° NNW 23:02:35 42° N 23:02:35 42° N
Cosmos 2369 Rocket 3.4 22:59:02 10° NW 23:02:43 33° WNW 23:02:43 33° WNW
NOSS 3-1 (A) 3.9 23:11:45 10° NW 23:18:40 83° NE 23:19:58 66° ESE
Cosmos 1943 3.6 23:21:35 61° NNE 23:21:35 61° NNE 23:26:16 10° NNE
SJ 16-02 3.2 23:31:13 10° NNW 23:33:17 28° NNW 23:33:17 28° NNW
Meteor 2-12 Rocket 4.5 23:30:38 10° N 23:36:15 73° NNE 23:36:15 73° NNE
ACS3 Solar Sail 3.0 23:35:13 10° NNE 23:40:19 28° E 23:40:25 28° E
SL-16 R/B 3.5 23:39:53 29° WNW 23:41:02 32° NW 23:46:05 10° NNE
CZ-2C R/B 3.1 23:44:18 57° NW 23:44:18 57° NW 23:48:46 10° NNW
Cosmos 1802 Rocket 4.0 23:43:35 73° WNW 23:43:35 73° WNW 23:49:41 10° N
SL-08 R/B 4.5 23:44:27 77° NNE 23:44:27 77° NNE 23:50:10 10° N
Meteor 2-3 Rocket 4.5 23:41:35 10° NNW 23:45:50 43° WNW 23:45:50 43° WNW
Cosmos 1725 Rocket 4.0 23:48:08 73° NW 23:48:08 73° NW 23:54:14 10° N
Cosmos 1818 4.1 23:46:08 10° NW 23:51:30 53° NE 23:51:37 53° NE
